Regional Weather Roundup
Issued by NWS

Home | Current Version | Previous Version | Graphics & Text | Print | Product List | Glossary On
Versions: 1 2 3 4 5 6 7 8 9 10 11 12 13 14 15 16 17 18 19 20 21 22 23 24 25 26 27 28 29 30 31 32 33 34 35 36 37 38 39 40 41 42 43 44 45 46 47 48 49 50
000
ASUS43 KLSX 260659
RWRMO

WEATHER SUMMARY FOR MISSOURI
NATIONAL WEATHER SERVICE SPRINGFIELD MO
100 AM CST WED NOV 26 2014

NOTE: "FAIR" INDICATES FEW OR NO CLOUDS BELOW 12,000 FEET WITH NO
       SIGNIFICANT WEATHER AND/OR OBSTRUCTIONS TO VISIBILITY.
       CURRENT SKY AND/OR WEATHER CONDITIONS ARE NOT AVAILABLE FOR
       CHILLICOTHE AND FARMINGTON.

MOZ001>031-035>038-043-044-053-054-260800-
...NORTHERN AND WESTERN MISSOURI...

CITY           SKY/WX    TMP DP  RH WIND       PRES   REMARKS
KANSAS CTY INT CLOUDY    39  22  50 S12       29.93F
KANSAS C DTWN  CLOUDY    40  21  46 S9G18     29.96F
LEE`S SUMMIT   CLOUDY    36  21  54 S9        29.96F WCI  29
ST JOSEPH      CLOUDY    39  23  52 S13       29.94F
CHILLICOTHE      N/A     34  20  56 S6        30.01F WCI  29
KIRKSVILLE     CLOUDY    28  21  75 SE8       30.02F WCI  20

$$
MOZ066>068-077>081-088>096-101>105-260800-
...SOUTHWEST MISSOURI...

CITY           SKY/WX    TMP DP  RH WIND       PRES   REMARKS
SPRINGFIELD    PTCLDY    30  20  66 SE10      30.04F WCI  21
JOPLIN         MOCLDY    35  22  58 S9        30.01F WCI  28

$$
MOZ032>034-039>042-045>050-055>058-069>072-260800-
...CENTRAL MISSOURI...

CITY           SKY/WX    TMP DP  RH WIND       PRES   REMARKS
COLUMBIA       PTCLDY    27  18  69 S7        30.07F WCI  19
JEFFERSON CITY PTCLDY    23  19  85 CALM      30.09F
ROLLA          PTCLDY    27  19  72 S6        30.05F WCI  20
SEDALIA        MOCLDY    32  21  64 SE8       30.02F WCI  25
OSAGE BEACH    MOCLDY    27  18  69 SE3       30.06F

$$
MOZ051-052-059>065-260800-
...EAST CENTRAL MISSOURI...

CITY           SKY/WX    TMP DP  RH WIND       PRES   REMARKS
ST LOUIS INTL  PTCLDY    27  21  78 E7        30.13F WCI  19
SPIRIT OF STL  CLEAR     23  21  92 CALM      30.11F
ST CHARLES     CLEAR     28  25  88 E6        30.13F WCI  22

$$
MOZ072>076-082>087-097>100-106>115-260800-
...SOUTH CENTRAL AND SOUTHEAST MISSOURI...

CITY           SKY/WX    TMP DP  RH WIND       PRES   REMARKS
CAPE GIRARDEAU CLEAR     26  25  96 CALM      30.16F
FARMINGTON     CLEAR     23  21  93 CALM      30.12F
POPLAR BLUFF   CLEAR     25  21  85 CALM      30.14F
WEST PLAINS    CLEAR     24  18  77 CALM      30.09F

$$


USA.gov is the U.S. government's official web portal to all federal, state and local government web resources and services.